www.pogodaiklimat.ru

Погода и климат >> Архив погоды >> КНДР >> Канге


ПОГОДА в Канге

  • Прогноз погоды в Канге
  • Монитор погоды в Канге

АРХИВ ПОГОДЫ в Канге

Время (UTC), дата Ветер
(напр.,м/с)
 
Видим.   Явления Облачность Т
(С)
Тd
(С)
f
(%)
Тe
(С)
Тes
(С)
Комфортность P
(гПа)
Po
(гПа)
Тmin
(С)
Tmax
(С)
R
(мм)
R24
(мм)
S
(см)
00 14.04 штиль 0 15 км 10/10 600 м
[Sc diur, vesp]
+5.6 +3.8 88 +4.4 5
03 14.04 штиль 0 15 км слаб. дождь 10/0 600 м
[As op]
+2.6 +0.4 85 +2 +6 1013.2 977.1 1
06 14.04 штиль 0 20 км 8/8 600 м
[Sc diur, vesp]
+5.4 +1.3 75 +5 +8 1011.6 975.5 1
09 14.04 СЗ 5 20 км 5/0 1500 м
[Ac trans]
+9.2 -0.7 50 +6 +7 1012.5 976.3
12 14.04 штиль 0 20 км ясно +6.5 -1.2 58 +6 +6 1015.0 978.8 +9.9 1
15 14.04 штиль 0 20 км ясно +2.2 -3.0 68 +2 +2 1015.7 979.7
18 14.04 штиль 0 20 км ясно 0.0 -1.9 87 -1 -1 1016.6 980.4
21 14.04 штиль 0 20 км ясно -0.8 -3.0 85 -2 -2 1016.6 980.4
00 15.04 штиль 0 20 км ясно +3.8 0.0 76 +3 +13 опасность
простуды
1015.8 979.6 -1.5
03 15.04 штиль 0 20 км ясно +11.8 +4.6 61 +11 +34 опасность
простуды
1013.9 977.7
06 15.04 ЮЗ 3 20 км ясно +17.6 +6.8 49 +18 +27 1011.3 975.2
09 15.04 ЮЗ 4 20 км ясно +17.2 +5.9 47 +17 +18 1010.4 974.3
12 15.04 Ю 4 20 км ясно +14.0 +5.0 55 +13 +13 1012.9 976.8 +19.0
15 15.04 Ю 3 20 км ясно +12.4 +4.3 58 +11 +11 1014.1 977.9
18 15.04 штиль 0 20 км ясно +5.3 +0.6 72 +5 +5 1014.1 977.9
21 15.04 штиль 0 20 км ясно +3.0 -0.5 78 +2 +2 1014.4 978.2
00 16.04 штиль 0 20 км ясно +9.0 +4.8 75 +8 +18 опасность
простуды
1014.9 978.7 +2.1
03 16.04 ЮЗ 3 20 км 8/0 1500 м
[Ac trans]
+17.4 +8.9 57 +17 +25 1012.9 976.8
06 16.04 ЮЗ 4 20 км 8/0 1500 м
[Ac trans]
+19.6 +9.4 52 +21 +25 комфорт 1011.0 974.9
09 16.04 ЮЗ 4 20 км 8/0 1500 м
[Ac trans]
+17.8 +8.1 53 +18 +18 1010.7 974.6
12 16.04 Ю 3 20 км ясно +14.6 +3.0 46 +14 +14 1013.2 977.0 +20.5
15 16.04 штиль 0 20 км ясно +7.2 +0.9 64 +7 +7 1013.8 977.7
18 16.04 штиль 0 20 км ясно +4.3 -0.5 71 +4 +4 1013.3 977.2
21 16.04 штиль 0 20 км ясно +2.0 -1.9 75 +1 +1 1012.4 976.3
00 17.04 штиль 0 20 км ясно +7.6 +2.7 71 +7 +17 опасность
простуды
1012.1 976.0 +1.5
03 17.04 Ю 4 15 км 10/0
[Ci sp]
+19.0 +8.4 50 +20 +29 1008.1 972.1
06 17.04 Ю 5 15 км 10/0
[Ci sp]
+21.3 +8.9 45 +23 +28 комфорт 1005.1 969.2
09 17.04 Ю 5 15 км 10/0
[Ci sp]
+18.2 +7.1 48 +18 +18 1004.2 968.3
12 17.04 Ю 4 20 км 10/10 600 м
[Sc diur, vesp]
+16.5 +6.8 53 +16 +16 1004.5 968.7 +22.3
15 17.04 штиль 0 15 км 10/10 600 м
[Sc diur, vesp]
+14.0 +8.6 70 +14 +14 1007.3 971.3
18 17.04 штиль 0 10 км слаб. дождь 10/0 600 м
[As op]
+11.0 +8.1 82 +10 +10 1009.6 971.0 2
21 17.04 штиль 0 10 км слаб. дождь 10/0 600 м
[As op]
+9.2 +7.7 90 +8 +8 1006.7 970.8 0.7
00 18.04 штиль 0 10 км слаб. дождь 10/0 600 м
[As op]
+9.0 +7.1 88 +8 +10 1008.5 972.5 +8.5 3
03 18.04 штиль 0 15 км 9/0 1500 м
[Ac trans]
+9.4 +4.5 71 +9 +19 опасность
простуды
1012.4 976.3 0.0
06 18.04 штиль 0 20 км 3/3 600 м
[Sc diur, vesp]
+12.4 +4.3 58 +12 +23 опасность
простуды
1012.5 976.4 0.0
09 18.04 штиль 0 20 км ясно +11.6 +2.7 54 +11 +13 1013.6 977.4
12 18.04 штиль 0 20 км ясно +8.0 +0.9 61 +8 +8 1016.6 980.4 +14.5 0.0
15 18.04 штиль 0 20 км ясно +4.3 -0.5 71 +4 +4 1017.5 981.2
18 18.04 штиль 0 20 км 8/8 600 м
[Sc diur, vesp]
+1.2 -2.5 76 0 0 1019.0 982.5
21 18.04 штиль 0 15 км 8/0 1500 м
[Ac trans]
+0.6 -1.9 83 -1 -1 1019.6 983.2
00 19.04 штиль 0 20 км 8/8 600 м
[Sc diur, vesp]
+4.9 +0.9 75 +4 +6 1020.2 983.8 +0.3
03 19.04 штиль 0 20 км 3/0
[Ci sp]
+12.3 +2.7 52 +12 +34 опасность
простуды
1018.5 982.1
06 19.04 штиль 0 20 км ясно +16.8 +4.8 45 +17 +33 опасность
простуды
1015.7 979.4
09 19.04 штиль 0 20 км ясно +18.0 +4.6 41 +18 +20 1013.6 977.5
12 19.04 штиль 0 20 км ясно +11.0 +0.9 50 +11 +11 1014.9 978.7 +19.0
15 19.04 штиль 0 20 км ясно +5.4 +0.4 70 +5 +5 1015.6 979.4
18 19.04 штиль 0 20 км 10/0
[Ci sp]
+2.8 -0.7 78 +2 +2 1015.4 979.2
21 19.04 штиль 0 20 км 4/4 600 м
[Sc diur, vesp]
+1.3 -1.9 79 0 0 1014.3 978.1
00 20.04 штиль 0 15 км 10/0 1500 м
[Ac trans]
+5.0 -0.2 69 +4 +8 1014.3 978.1 +0.4
03 20.04 штиль 0 10 км слаб. дождь 10/0 600 м
[As op]
+5.7 +2.1 78 +5 +9 1014.2 978.0 0.3
06 20.04 штиль 0 10 км слаб. дождь 10/0 600 м
[As op]
+5.8 +3.8 87 +5 +8 1012.4 976.3 6
09 20.04 штиль 0 10 км слаб. дождь 10/0 600 м
[As op]
+5.5 +3.6 88 +4 +5 1012.0 975.9 2
12 20.04 штиль 0 15 км {дождь} 10/10 600 м
[Sc diur, vesp]
+7.2 +5.4 88 +6 +6 1013.3 977.1 +7.5 7
15 20.04 штиль 0 15 км 10/10 600 м
[Sc diur, vesp]
+7.0 +5.4 90 +6 +6 1014.3 978.1
18 20.04 штиль 0 15 км 10/10 600 м
[Sc diur, vesp]
+7.0 +5.4 90 +6 +6 1013.6 977.4
21 20.04 штиль 0 15 км 10/10 600 м
[Sc diur, vesp]
+6.8 +4.8 87 +6 +6 1013.9 977.7

 

Местоположение метеостанции Канге (КНДР): широта 40.97 долгота 126.60 высота над уровнем моря 306 м.

В архиве по умолчанию представлена погода в Канге за последнюю неделю. Архивные данные за месяц целиком и за предыдущие месяцы, начиная с января 2011 года, Вы можете получить, выбрав интересующий диапазон дат из раскрывающегося списка и нажав кнопку "Ввод!".


*Определитесь, кто Вы:
робот инопланетянин человек

Внимание! Время в таблицах - всемирное. Для получения местного времени необходимо прибавить поправку, которая равна 9 ч.

Смотрите также архив погоды в соседних городах и на ближайших метеорологических станциях:

Погода в Цзиане (Цзяньси, Китай) (40 км)
Погода в Джангджине (КНДР) (86 км)
Погода в Линьцзяне (Гирин, Китай) (87 км)
Погода в Чунгане (КНДР) (93 км)
Погода в Хыйчхоне (КНДР) (94 км)
Погода в Пунгсане (КНДР) (131 км)
Погода в Чанбае (Гирин, Китай) (137 км)
Погода в Хесене (КНДР) (139 км)
Погода в Хамхыне (КНДР) (141 км)
Погода на Плотине Сапунг (КНДР) (152 км)

Пояснения к столбцам:

Ветер - указаны скорость ветра в м/с - средняя за 10 мин, порывы в срок и между сроками (в фигурных скобках) и направление, откуда дует ветер: С - северный, СВ - северо-восточный, В - восточный, ЮВ - юго-восточный, Ю - южный, ЮЗ - юго-западный, З - западный, СЗ - северо-западный.
Видимость - горизонтальная дальность видимости в метрах или километрах. При видимости от 1 до 10 км при отсутствии осадков обычно наблюдается дымка, при ухудшении видимости до 1 км и менее - туман. В сухую погоду видимость может ухудшаться дымом, пылью или мглою.
Явления - указаны атмосферные явления, наблюдавшиеся в срок или в последний час перед сроком; фигурными скобками обозначены явления, наблюдавшиеся между сроками (за 1-3 часа до срока); квадратными скобками обозначены град или гололедные отложения с указанием их диаметра в мм.
Облачность - указаны через наклонную черту общая и нижняя облачность в баллах и высота нижней границы облаков в метрах; квадратными скобками обозначены формы облаков: Ci - перистые, Cs - перисто-слоистые, Cc - перисто-кучевые, Ac - высококучевые, As - высокослоистые, Sc - слоисто-кучевые, Ns - слоисто-дождевые, Cu - кучевые, Cb - кучево-дождевые. Подробнее классификацию облаков см. в Атласе облаков (PDF).
T - Температура воздуха - температура, измеренная на высоте 2 м над землей.
Td - Температура точки росы - температура, при понижении до которой содержащийся в воздухе водяной пар достигнет насыщения.
f - Относительная влажность воздуха - влажноcть воздуха, измеренная на высоте 2 м над землей.
Te - Эффективная температура - температура, которую ощущает одетый по сезону человек в тени. Характеристика душности погоды. При расчете учитывается влияние влажности воздуха и скорости ветра на теплоощущения человека.
Tes - Эффективная температура на солнце - температура, которую ощущает человек, с поправкой на солнечный нагрев. Характеристика знойности погоды. Зависит от высоты солнца над горизонтом, облачности и скорости ветра. Ночью, в пасмурную погоду, а также при ветре 12 м/с и более поправка равна нулю.
P - Атмосферное давление - приведенное к уровню моря атмосферное давление.
Po - Атмосферное давление - измеренное на уровне метеостанции атмосферное давление.
Tmin - Минимальная температура - минимум температуры воздуха на высоте 2 м над землей.
Tmax - Максимальная температура - максимум температуры воздуха на высоте 2 м над землей.
R - Количество осадков - Количество выпавших осадков за период времени, мм. При наведении курсора мыши на число - период времени, за который выпало указанное количество осадков.
R24 - Количество осадков - Количество выпавших осадков за 24 часа, мм.
S - Снежный покров - Высота снежного покрова, см. При наведении курсора мыши на число - состояние снежного покрова и степень покрытия местности в баллах.